When you browse on this site, cookies collect data to enhance your experience and personalize the content and advertising you see.
Visit our Privacy Policy to learn more. By continuing to use the site, you agree to this use of cookies and data.

Stündliche Wetter Zastav'je

Heute, 15 Juli, Mittwoch

Zeit Temperatur Niederschläge Wind Luftdruck Luftfeuchtigkeit
00:00 +13°C° 0 mm 1 m/S 741 mmHg 92%
01:00 +12°C° 0 mm 1 m/S 741 mmHg 92%
02:00 +12°C° 0 mm 1 m/S 741 mmHg 93%
03:00 +12°C° 0 mm 1 m/S 741 mmHg 93%
04:00 +12°C° 0 mm 1 m/S 741 mmHg 93%
05:00 +12°C° 0 mm 1 m/S 741 mmHg 94%
06:00 +13°C° 0 mm 1 m/S 741 mmHg 90%
07:00 +15°C° 0 mm 1 m/S 741 mmHg 87%
08:00 +18°C° 0 mm 1 m/S 741 mmHg 84%
09:00 +19°C° 0 mm 1 m/S 741 mmHg 79%
10:00 +20°C° 0 mm 1 m/S 741 mmHg 73%
11:00 +22°C° 0 mm 1 m/S 741 mmHg 68%
12:00 +22°C° 0.2 mm 1 m/S 741 mmHg 68%
13:00 +22°C° 0.2 mm 1 m/S 741 mmHg 67%
14:00 +23°C° 0.2 mm 1 m/S 741 mmHg 66%
15:00 +23°C° 0.4 mm 1 m/S 740 mmHg 67%
16:00 +23°C° 0.4 mm 1 m/S 740 mmHg 69%
17:00 +23°C° 0.4 mm 1 m/S 740 mmHg 70%
18:00 +21°C° 0 mm 1 m/S 740 mmHg 75%
19:00 +20°C° 0 mm 1 m/S 740 mmHg 79%
20:00 +19°C° 0 mm 1 m/S 740 mmHg 83%
21:00 +17°C° 0 mm 2 m/S 740 mmHg 85%
22:00 +16°C° 0 mm 2 m/S 740 mmHg 86%
23:00 +16°C° 0 mm 2 m/S 740 mmHg 88%

Morgen, 16 Juli, Donnerstag

Zeit Temperatur Niederschläge Wind Luftdruck Luftfeuchtigkeit
00:00 +15°C° 0 mm 2 m/S 740 mmHg 88%
01:00 +15°C° 0 mm 2 m/S 740 mmHg 87%
02:00 +15°C° 0 mm 2 m/S 740 mmHg 87%
03:00 +15°C° 0 mm 2 m/S 740 mmHg 88%
04:00 +15°C° 0 mm 1 m/S 739 mmHg 88%
05:00 +14°C° 0 mm 1 m/S 739 mmHg 89%
06:00 +16°C° 0 mm 1 m/S 739 mmHg 86%
07:00 +18°C° 0 mm 1 m/S 739 mmHg 83%
08:00 +20°C° 0 mm 1 m/S 740 mmHg 80%
09:00 +20°C° 0.1 mm 2 m/S 739 mmHg 74%
10:00 +23°C° 0.1 mm 2 m/S 739 mmHg 68%
11:00 +24°C° 0.1 mm 2 m/S 739 mmHg 62%
12:00 +24°C° 0.1 mm 2 m/S 739 mmHg 61%
13:00 +25°C° 0.1 mm 2 m/S 739 mmHg 60%
14:00 +25°C° 0.1 mm 3 m/S 739 mmHg 59%
15:00 +24°C° 0.4 mm 3 m/S 739 mmHg 65%
16:00 +22°C° 0.4 mm 4 m/S 739 mmHg 72%
17:00 +21°C° 0.4 mm 5 m/S 738 mmHg 78%
18:00 +20°C° 0.4 mm 4 m/S 739 mmHg 82%
19:00 +19°C° 0.4 mm 3 m/S 739 mmHg 87%
20:00 +18°C° 0.4 mm 2 m/S 739 mmHg 91%
21:00 +17°C° 0.3 mm 2 m/S 739 mmHg 93%
22:00 +17°C° 0.3 mm 2 m/S 739 mmHg 94%
23:00 +16°C° 0.3 mm 3 m/S 739 mmHg 95%

übermorgen, 17 Juli, Freitag

Zeit Temperatur Niederschläge Wind Luftdruck Luftfeuchtigkeit
00:00 +16°C° 0.2 mm 2 m/S 739 mmHg 96%
01:00 +16°C° 0.2 mm 2 m/S 739 mmHg 97%
02:00 +16°C° 0.2 mm 2 m/S 739 mmHg 97%
03:00 +15°C° 0.2 mm 1 m/S 739 mmHg 97%
04:00 +15°C° 0.2 mm 1 m/S 739 mmHg 97%
05:00 +14°C° 0.2 mm 0 m/S 739 mmHg 96%
06:00 +15°C° 0.1 mm 0 m/S 739 mmHg 93%
07:00 +16°C° 0.1 mm 0 m/S 739 mmHg 89%
08:00 +18°C° 0.1 mm 1 m/S 740 mmHg 85%
09:00 +19°C° 0.1 mm 1 m/S 740 mmHg 81%
10:00 +20°C° 0.1 mm 1 m/S 740 mmHg 77%
11:00 +21°C° 0.1 mm 1 m/S 740 mmHg 72%
12:00 +21°C° 0.1 mm 1 m/S 740 mmHg 72%
13:00 +21°C° 0.1 mm 1 m/S 740 mmHg 72%
14:00 +21°C° 0.1 mm 2 m/S 740 mmHg 72%
15:00 +21°C° 0.3 mm 1 m/S 740 mmHg 76%
16:00 +20°C° 0.3 mm 1 m/S 739 mmHg 80%
17:00 +20°C° 0.3 mm 1 m/S 739 mmHg 84%
18:00 +19°C° 0.1 mm 1 m/S 739 mmHg 84%
19:00 +19°C° 0.1 mm 1 m/S 739 mmHg 85%
20:00 +16°C° 0.1 mm 0 m/S 739 mmHg 85%
21:00 +18°C° 0.1 mm 1 m/S 739 mmHg 85%
22:00 +18°C° 0.1 mm 1 m/S 739 mmHg 85%
23:00 +18°C° 0.1 mm 1 m/S 739 mmHg 85%

18 Juli, Samstag

Zeit Temperatur Niederschläge Wind Luftdruck Luftfeuchtigkeit
00:00 +16°C° 0.9 mm 1 m/S 739 mmHg 89%
01:00 +16°C° 0.9 mm 1 m/S 739 mmHg 93%
02:00 +16°C° 0.9 mm 1 m/S 740 mmHg 97%
03:00 +15°C° 0.1 mm 1 m/S 740 mmHg 96%
04:00 +15°C° 0.1 mm 1 m/S 740 mmHg 96%
05:00 +15°C° 0.1 mm 1 m/S 740 mmHg 96%
06:00 +16°C° 0 mm 1 m/S 740 mmHg 94%
07:00 +18°C° 0 mm 1 m/S 740 mmHg 91%
08:00 +19°C° 0 mm 1 m/S 740 mmHg 88%
09:00 +20°C° 0.1 mm 1 m/S 740 mmHg 84%
10:00 +19°C° 0.1 mm 0 m/S 740 mmHg 79%
11:00 +21°C° 0.1 mm 0 m/S 740 mmHg 74%
12:00 +21°C° 0 mm 0 m/S 740 mmHg 71%
13:00 +22°C° 0 mm 0 m/S 740 mmHg 68%
14:00 +22°C° 0 mm 0 m/S 740 mmHg 64%
15:00 +23°C° 0.6 mm 1 m/S 740 mmHg 70%
16:00 +21°C° 0.6 mm 2 m/S 740 mmHg 77%
17:00 +21°C° 0.6 mm 3 m/S 740 mmHg 83%
18:00 +20°C° 0.2 mm 3 m/S 740 mmHg 86%
19:00 +19°C° 0.2 mm 3 m/S 740 mmHg 90%
20:00 +17°C° 0.2 mm 3 m/S 740 mmHg 93%
21:00 +17°C° 0 mm 2 m/S 740 mmHg 93%
22:00 +16°C° 0 mm 2 m/S 740 mmHg 94%
23:00 +16°C° 0 mm 2 m/S 740 mmHg 95%

19 Juli, Sonntag

Zeit Temperatur Niederschläge Wind Luftdruck Luftfeuchtigkeit
00:00 +16°C° 0 mm 2 m/S 740 mmHg 94%
01:00 +16°C° 0 mm 1 m/S 740 mmHg 94%
02:00 +16°C° 0 mm 1 m/S 740 mmHg 94%
03:00 +16°C° 0 mm 1 m/S 740 mmHg 94%
04:00 +16°C° 0 mm 1 m/S 740 mmHg 95%
05:00 +16°C° 0 mm 1 m/S 740 mmHg 95%
06:00 +16°C° 0.2 mm 1 m/S 740 mmHg 95%
07:00 +16°C° 0.2 mm 1 m/S 740 mmHg 96%
08:00 +16°C° 0.2 mm 1 m/S 740 mmHg 96%
09:00 +18°C° 1.5 mm 1 m/S 740 mmHg 96%
10:00 +18°C° 1.5 mm 1 m/S 741 mmHg 96%
11:00 +18°C° 1.5 mm 1 m/S 741 mmHg 96%
12:00 +19°C° 0.5 mm 1 m/S 741 mmHg 92%
13:00 +20°C° 0.5 mm 1 m/S 740 mmHg 88%
14:00 +19°C° 0.5 mm 0 m/S 740 mmHg 84%
15:00 +19°C° 0.1 mm 0 m/S 740 mmHg 81%
16:00 +20°C° 0.1 mm 0 m/S 740 mmHg 78%
17:00 +22°C° 0.1 mm 1 m/S 740 mmHg 74%
18:00 +21°C° 0.1 mm 1 m/S 740 mmHg 79%
19:00 +20°C° 0.1 mm 1 m/S 740 mmHg 83%
20:00 +19°C° 0.1 mm 1 m/S 740 mmHg 87%
21:00 +18°C° 0.1 mm 1 m/S 740 mmHg 89%
22:00 +17°C° 0.1 mm 2 m/S 740 mmHg 91%
23:00 +16°C° 0.1 mm 2 m/S 740 mmHg 92%

20 Juli, Montag

Zeit Temperatur Niederschläge Wind Luftdruck Luftfeuchtigkeit
00:00 +16°C° 0 mm 2 m/S 740 mmHg 92%
01:00 +15°C° 0 mm 2 m/S 740 mmHg 93%
02:00 +15°C° 0 mm 2 m/S 740 mmHg 93%
03:00 +15°C° 0 mm 2 m/S 739 mmHg 93%
04:00 +14°C° 0 mm 3 m/S 739 mmHg 93%
05:00 +14°C° 0 mm 3 m/S 739 mmHg 94%
06:00 +16°C° 0 mm 3 m/S 740 mmHg 92%
07:00 +18°C° 0 mm 4 m/S 740 mmHg 90%
08:00 +19°C° 0 mm 4 m/S 740 mmHg 88%
09:00 +20°C° 0.2 mm 4 m/S 740 mmHg 84%
10:00 +22°C° 0.2 mm 5 m/S 740 mmHg 80%
11:00 +23°C° 0.2 mm 5 m/S 740 mmHg 76%
12:00 +23°C° 0.2 mm 5 m/S 740 mmHg 74%
13:00 +25°C° 0.2 mm 5 m/S 739 mmHg 72%
14:00 +25°C° 0.2 mm 5 m/S 739 mmHg 70%
15:00 +25°C° 0.3 mm 5 m/S 739 mmHg 72%
16:00 +25°C° 0.3 mm 5 m/S 739 mmHg 74%
17:00 +25°C° 0.3 mm 4 m/S 739 mmHg 75%
18:00 +22°C° 0.4 mm 4 m/S 739 mmHg 80%
19:00 +21°C° 0.4 mm 4 m/S 739 mmHg 85%
20:00 +20°C° 0.4 mm 3 m/S 739 mmHg 90%
21:00 +19°C° 0.3 mm 3 m/S 740 mmHg 91%
22:00 +19°C° 0.3 mm 3 m/S 740 mmHg 93%
23:00 +18°C° 0.3 mm 3 m/S 740 mmHg 94%
Mehr zeigen